x

Ilm2 - 5 Miles Se Of Wrightsville Beach, Nc (41038) Weather Station

5:08pm - Fri 28th Aug 2015 All times are EDT. -4 hours from GMT.

  • Wind
    16mph, 22mph gusts
  • Sea Temp 82°f
  • Air Temp 81°f
  • Sea Pressure 1019.3mb
  • Ilm2 - 5 Miles Se Of Wrightsville Beach, Nc
  • Ilm2 - 5 Miles Se Of Wrightsville Beach, Nc

More Historic Weather Station data

Upgrade to MSW Pro to gain access to the past 30 days of data for over 8000 Wavebouys and Weather Stations around the globe.

Join Pro

Comparision Forecast

View Surf forecast
   
Fri 08/28 5:08pm 16 22 mph 1019.3mb 82f 81f
4:53pm 16 20 mph 1019.3mb 82f 81f
4:38pm 16 20 mph 1019.2mb 82f 81f
4:23pm 16 20 mph 1019.3mb 82f 81f
4:08pm 16 20 mph 1019.6mb 82f 81f
3:53pm 16 22 mph 1019.7mb 82f 81f
3:38pm 16 20 mph 1019.6mb 82f 81f
3:23pm 16 20 mph 1019.7mb 82f 81f
3:08pm 16 20 mph 1020mb 82f 81f
2:53pm 16 20 mph 1020.2mb 82f 81f
2:38pm 16 20 mph 1020.3mb 82f 81f
2:23pm 16 22 mph 1020.3mb 82f 80f
2:08pm 16 22 mph 1020.3mb 82f 80f
1:08pm 16 22 mph 1020.6mb 82f 80f
12:53pm 18 22 mph 1020.7mb 82f 79f
12:38pm 18 22 mph 1020.6mb 82f 79f
12:23pm 18 22 mph 1020.7mb 82f 79f
12:08pm 18 25 mph 1020.9mb 82f 79f
11:53am 18 22 mph 1020.9mb 82f 79f
11:38am 16 22 mph 1020.9mb 82f 78f
11:23am 18 25 mph 1020.7mb 82f 78f
11:08am 16 22 mph 1020.6mb 82f 78f
10:53am 16 22 mph 1020.3mb 82f 78f
10:38am 16 22 mph 1020.3mb 82f 78f
10:23am 18 22 mph 1020mb 82f 78f
10:08am 18 22 mph 1019.9mb 82f 78f
9:53am 18 25 mph 1019.5mb 82f 77f
9:38am 18 22 mph 1019.5mb 82f 77f
9:23am 18 25 mph 1019.3mb 82f 77f
9:08am 18 25 mph 1019.2mb 82f 76f
8:53am 18 25 mph 1019.1mb 82f 78f
8:38am 20 25 mph 1018.7mb 82f 78f
8:23am 20 27 mph 1018.7mb 82f 78f
8:08am 20 25 mph 1018.5mb 82f 79f
5:08am 20 27 mph 1016.8mb 82f 78f
4:53am 20 27 mph 1016.6mb 82f 77f
4:38am 20 25 mph 1016.6mb 82f 77f
4:23am 20 27 mph 1016.8mb 82f 77f
4:08am 20 25 mph 1017mb 82f 77f
3:53am 20 25 mph 1016.9mb 82f 77f
3:38am 22 27 mph 1016.9mb 82f 76f
3:23am 20 27 mph 1016.9mb 82f 76f
3:08am 22 29 mph 1016.8mb 82f 76f
2:53am 22 27 mph 1017.2mb 82f 76f
2:38am 20 27 mph 1017.2mb 82f 77f
2:23am 18 25 mph 1017.6mb 82f 77f
2:08am 18 25 mph 1017.6mb 82f 77f
1:53am 20 25 mph 1017.8mb 82f 77f
1:38am 20 27 mph 1017.7mb 82f 78f
1:23am 20 27 mph 1017.7mb 82f 78f
1:08am 20 27 mph 1017.9mb 82f 78f
12:53am 18 25 mph 1017.9mb 82f 78f
12:38am 18 25 mph 1018mb 82f 77f
12:23am 20 25 mph 1017.8mb 82f 77f
12:08am 18 25 mph 1017.8mb 82f 77f
Thu 08/27 11:53pm 20 25 mph 1017.8mb 82f 77f
11:38pm 20 27 mph 1017.5mb 82f 77f
11:23pm 22 27 mph 1017.2mb 82f 77f
11:08pm 20 27 mph 1017.1mb 82f 78f
10:53pm 20 27 mph 1017.2mb 82f 78f
10:38pm 20 25 mph 1017.7mb 82f 78f
10:23pm 20 29 mph 1017.5mb 82f 78f
10:08pm 20 29 mph 1017.5mb 82f 78f
9:53pm 20 27 mph 1017.5mb 82f 78f
9:38pm 22 29 mph 1017.3mb 82f 79f
9:23pm 22 29 mph 1017.1mb 82f 79f
9:08pm 25 29 mph 1016.8mb 82f 79f
8:53pm 22 31 mph 1016.9mb 82f 79f
8:38pm 22 29 mph 1016.7mb 82f 79f
8:23pm 22 29 mph 1016.8mb 82f 79f
8:08pm 22 29 mph 1016.2mb 82f 79f
7:53pm 22 31 mph 1016mb 82f 79f
7:38pm 22 29 mph 1016mb 82f 78f
7:23pm 22 31 mph 1015.8mb 82f 78f
7:08pm 22 29 mph 1015.8mb 83f 79f
6:53pm 20 27 mph 1015.7mb 82f 80f
6:38pm 22 31 mph 1015.4mb 83f 80f
6:23pm 22 29 mph 1015.5mb 83f 80f
6:08pm 20 27 mph 1015.3mb 83f 80f
5:53pm 20 27 mph 1015.5mb 83f 80f
5:38pm 18 22 mph 1015.6mb 83f 80f
5:23pm 18 22 mph 1015.4mb 83f 80f
5:08pm 18 22 mph 1015.3mb 83f 80f
4:53pm 20 25 mph 1015.1mb 83f 80f
4:38pm 16 22 mph 1015.3mb 83f 80f
4:23pm 16 22 mph 1015.2mb 83f 80f
4:08pm 16 22 mph 1015.3mb 83f 80f
3:53pm 13 16 mph 1015.4mb 83f 79f
3:38pm 13 18 mph 1015.6mb 83f 79f
3:23pm 13 20 mph 1015.6mb 83f 79f
3:08pm 13 18 mph 1015.8mb 83f 79f
2:53pm 16 22 mph 1015.9mb 83f 79f
2:38pm 16 20 mph 1016mb 83f 78f
2:23pm 16 20 mph 1016mb 83f 78f
2:08pm 16 20 mph 1016.2mb 83f 78f
1:53pm 16 22 mph 1016.2mb 83f 78f
1:38pm 16 22 mph 1016.1mb 83f 78f
1:23pm 16 20 mph 1016.3mb 83f 78f
1:08pm 16 20 mph 1016.4mb 83f 78f
12:53pm 16 20 mph 1016.4mb 83f 78f
12:38pm 16 20 mph 1016.6mb 83f 78f
12:23pm 16 20 mph 1016.6mb 83f 78f
12:08pm 16 22 mph 1016.6mb 83f 78f
11:53am 16 20 mph 1016.9mb 83f 78f
11:38am 16 20 mph 1016.8mb 83f 78f
11:23am 13 20 mph 1016.9mb 83f 78f
11:08am 13 20 mph 1017mb 83f 78f
10:53am 13 20 mph 1016.8mb 83f 78f
10:38am 16 22 mph 1016.6mb 83f 78f
10:23am 13 18 mph 1016.7mb 83f 78f
10:08am 16 20 mph 1016.4mb 83f 77f
9:53am 16 20 mph 1015.9mb 83f 76f
9:38am 16 22 mph 1015.6mb 83f 76f
9:23am 13 18 mph 1015.5mb 83f 76f
9:08am 13 18 mph 1015.2mb 83f 75f
8:53am 11 16 mph 1015.5mb 83f 77f
8:38am 9 13 mph 1015.3mb 83f 78f
8:23am 9 13 mph 1015mb 83f 78f
8:08am 9 13 mph 1015mb 83f 78f
7:53am 9 11 mph 1015mb 83f 78f
7:38am 9 13 mph 1015mb 83f 78f
7:23am 9 13 mph 1015.1mb 83f 77f
7:08am 7 11 mph 1014.9mb 83f 77f
6:53am 11 16 mph 1014.6mb 83f 77f
6:08am 13 18 mph 1014.4mb 83f 76f
5:53am 16 20 mph 1014mb 83f 76f
5:38am 13 18 mph 1013.8mb 83f 77f
5:08am 11 16 mph 1013.7mb 83f 74f
4:53am 13 18 mph 1013.7mb 83f 77f
4:08am 18 22 mph 1013.8mb 83f 80f
3:53am 16 22 mph 1013.5mb 83f 80f
3:38am 16 20 mph 1013.3mb 83f 80f
3:23am 16 20 mph 1013.4mb 83f 78f
3:08am 16 20 mph 1013.7mb 83f 78f
2:53am 18 25 mph 1013.9mb 83f 78f
2:38am 16 20 mph 1014mb 83f 79f
2:23am 13 18 mph 1014.2mb 83f 78f
2:08am 11 18 mph 1014.3mb 83f 80f
1:53am 7 11 mph 1014.6mb 83f 80f
1:38am 7 11 mph 1014.8mb 83f 80f
1:23am 7 11 mph 1014.5mb 83f 80f
1:08am 9 13 mph 1014.4mb 83f 80f
12:53am 11 13 mph 1014.4mb 83f 81f
12:38am 11 13 mph 1014.5mb 83f 81f
12:23am 11 13 mph 1014.8mb 83f 80f
12:08am 11 16 mph 1014.7mb 83f 80f
Wed 08/26 11:53pm 11 13 mph 1014.7mb 83f 80f
11:38pm 9 13 mph 1014.6mb 83f 80f
11:23pm 9 13 mph 1014.8mb 83f 80f
11:08pm 9 13 mph 1014.9mb 83f 78f
10:53pm 11 16 mph 1014.8mb 83f 78f
10:38pm 11 16 mph 1015.1mb 83f 78f
10:23pm 16 20 mph 1015.3mb 83f 79f
10:08pm 16 20 mph 1014.9mb 83f 79f
9:53pm 16 22 mph 1014.7mb 83f 79f
9:38pm 16 22 mph 1014.3mb 83f 78f
9:23pm 18 25 mph 1013.8mb 83f 77f
9:08pm 18 25 mph 1013.8mb 83f 78f
8:53pm 20 27 mph 1013.9mb 83f 79f
8:38pm 20 25 mph 1013.8mb 83f 78f
8:23pm 18 25 mph 1013.5mb 83f 78f
8:08pm 16 22 mph 1013.3mb 83f 81f
7:53pm 11 16 mph 1013.4mb 83f 80f
7:38pm 11 16 mph 1013.1mb 83f 81f
7:23pm 4 7 mph 1013mb 83f 83f
7:08pm 7 9 mph 1012.8mb 83f 83f
6:53pm 7 9 mph 1012.9mb 83f 83f
6:38pm 7 11 mph 1012.9mb 83f 83f
6:23pm 9 11 mph 1012.8mb 83f 83f
6:08pm 11 13 mph 1012.6mb 83f 83f
5:53pm 11 16 mph 1012.8mb 83f 83f
5:38pm 11 13 mph 1012.8mb 83f 83f
5:23pm 11 13 mph 1012.7mb 84f 83f
5:08pm 9 13 mph 1012.7mb 84f 83f
4:53pm 9 13 mph 1012.7mb 84f 83f
4:38pm 9 11 mph 1012.6mb 84f 83f
4:23pm 11 13 mph 1012.9mb 84f 83f
4:08pm 9 11 mph 1013mb 84f 82f
3:53pm 4 9 mph 1013.2mb 83f 82f
3:38pm 4 7 mph 1013.3mb 83f 82f
3:23pm 4 9 mph 1013.3mb 83f 82f
3:08pm 4 7 mph 1013.5mb 83f 83f
2:53pm 2 4 mph 1013.7mb 83f 83f
2:38pm 2 4 mph 1013.7mb 83f 83f
2:23pm 2 7 mph 1013.9mb 83f 82f
2:08pm 2 4 mph 1013.9mb 83f 83f
1:53pm 2 4 mph 1013.9mb 83f 83f
1:38pm 2 4 mph 1014mb 83f 82f
1:23pm 7 9 mph 1014.2mb 83f 81f
1:08pm 7 11 mph 1014.2mb 83f 82f
12:53pm 2 4 mph 1014.5mb 83f 82f
12:38pm 2 4 mph 1014.5mb 83f 81f
12:23pm 4 7 mph 1014.6mb 83f 81f
12:08pm 4 7 mph 1014.7mb 83f 81f
11:53am 4 7 mph 1014.7mb 83f 81f
11:38am 4 7 mph 1014.1mb 83f 81f
11:23am 4 7 mph 1014.2mb 83f 80f
11:08am 4 7 mph 1014.6mb 83f 80f
10:53am 7 11 mph 1014.3mb 83f 80f
10:38am 7 9 mph 1013.8mb 83f 80f
10:23am 7 9 mph 1014.1mb 83f 79f
10:08am 4 7 mph 1014.4mb 83f 79f
9:53am 7 9 mph 1014.2mb 83f 79f
9:38am 7 11 mph 1013.8mb 83f 79f
9:23am 7 9 mph 1014mb 83f 79f
9:08am 7 11 mph 1014mb 83f 79f
8:53am 9 11 mph 1013.7mb 83f 79f
8:38am 7 11 mph 1013.7mb 83f 78f
8:23am 9 13 mph 1013.4mb 83f 77f
8:08am 9 11 mph 1013mb 83f 78f
7:53am 13 18 mph 1013mb 83f 78f
7:38am 13 18 mph 1013mb 83f 78f
7:23am 9 13 mph 1012.8mb 83f 79f
7:08am 7
mph
1012.3mb 83f 79f
6:53am 4 9 mph 1011.8mb 83f 78f
6:38am 9 13 mph 1011.6mb 83f 78f
6:23am 13 18 mph 1011.5mb 83f 78f
6:08am 18 25 mph 1011.8mb 83f 79f
5:53am 11 18 mph 1011.9mb 83f 80f
5:38am 4 7 mph 1011.6mb 83f 81f
5:23am 2 4 mph 1011.9mb 83f 81f
5:08am 2 7 mph 1011.8mb 83f 81f
4:53am 4 11 mph 1011.7mb 83f 80f
4:38am 7 11 mph 1011.9mb 83f 82f
4:23am 4 7 mph 1011.9mb 83f 82f
4:08am 4 7 mph 1011.7mb 83f 82f
3:53am 7 9 mph 1011.6mb 83f 82f
3:38am 7 9 mph 1011.6mb 83f 82f
3:23am 9 11 mph 1011.6mb 83f 82f
3:08am 9 13 mph 1011.7mb 83f 82f
2:53am 9 13 mph 1011.5mb 83f 82f
2:38am 9 13 mph 1011.5mb 83f 82f
2:23am 9 11 mph 1011.8mb 83f 82f
2:08am 9 11 mph 1011.7mb 83f 82f
1:53am 9 11 mph 1011.9mb 83f 82f
1:38am 9 11 mph 1012.2mb 83f 82f
1:23am 9 13 mph 1012.1mb 83f 82f
1:08am 9 11 mph 1012.2mb 83f 82f
12:53am 9 11 mph 1012.2mb 83f 82f
12:38am 7 9 mph 1012.5mb 83f 82f
12:23am 7 11 mph 1012.4mb 83f 82f
12:08am 9 11 mph 1012.3mb 83f 82f
Tue 08/25 11:53pm 9 13 mph 1012.1mb 83f 83f
11:38pm 9 11 mph 1012.4mb 83f 83f
11:23pm 9 13 mph 1012.6mb 83f 83f
10:53pm 9 11 mph 1012.5mb 83f 83f
10:08pm 9 11 mph 1012.3mb 83f 83f
9:53pm 9 11 mph 1012.5mb 83f 83f
9:38pm 9 13 mph 1012.4mb 83f 83f
9:23pm 11 13 mph 1012.2mb 83f 82f
9:08pm 11 16 mph 1012mb 83f 82f
8:53pm 9 13 mph 1012.2mb 83f 82f
8:38pm 9 13 mph 1012.2mb 83f 82f
8:23pm 9 13 mph 1012mb 83f 82f
8:08pm 11 16 mph 1011.6mb 83f 82f
7:53pm 11 13 mph 1011.3mb 83f 82f
7:08pm 9 13 mph 1011.3mb 83f 82f
6:53pm 9 13 mph 1011.4mb 83f 83f
6:38pm 9 13 mph 1011.5mb 83f 83f
6:23pm 11 13 mph 1011.3mb 83f 83f
6:08pm 11 13 mph 1011.4mb 83f 83f
5:53pm 11 16 mph 1011.3mb 83f 83f
5:38pm 13 18 mph 1011.2mb 83f 83f
5:23pm 13 18 mph 1010.9mb 83f 83f
5:08pm 13 18 mph 1011.1mb 83f 83f
4:53pm 13 18 mph 1011.3mb 83f 83f
4:38pm 13 16 mph 1011.2mb 83f 82f
4:23pm 11 16 mph 1011.2mb 83f 82f
4:08pm 4 9 mph 1011.4mb 83f 80f
3:53pm 9 16 mph 1011.4mb 83f 80f
3:38pm 4 7 mph 1011.8mb 83f 81f
3:23pm 7 16 mph 1012.4mb 83f 80f
3:08pm 11 13 mph 1012.1mb 83f 82f
2:53pm 11 13 mph 1012mb 83f 82f
2:38pm 13 16 mph 1011.8mb 83f 82f
2:23pm 13 16 mph 1011.8mb 83f 82f
2:08pm 11 16 mph 1012.3mb 83f 82f
1:53pm 11 13 mph 1012.2mb 83f 82f
1:38pm 11 13 mph 1012.2mb 83f 82f
1:23pm 9 13 mph 1012.5mb 83f 82f
1:08pm 9 11 mph 1012.7mb 83f 82f
12:53pm 9 11 mph 1012.9mb 83f 82f
12:38pm 7 9 mph 1013mb 83f 82f
12:23pm 7 9 mph 1013mb 83f 82f
12:08pm 4 7 mph 1013mb 83f 82f
11:53am 4 9 mph 1013.3mb 83f 81f
11:38am 4 9 mph 1013.5mb 83f 81f
11:23am 7 9 mph 1013.3mb 83f 81f
11:08am 9 13 mph 1013.3mb 83f 80f
10:53am 13 16 mph 1013.2mb 83f 80f
10:38am 9 16 mph 1013.3mb 83f 82f
10:23am 7 9 mph 1013.3mb 83f 82f
10:08am 7 9 mph 1013.1mb 83f 82f
9:53am 4 9 mph 1013mb 83f 83f
9:38am 4 7 mph 1012.9mb 83f 83f
9:23am 4 7 mph 1012.8mb 83f 83f
9:08am 2 4 mph 1012.7mb 83f 83f
8:53am 2 4 mph 1012.8mb 82f 83f
8:38am 4 7 mph 1012.9mb 82f 82f
8:23am 4 7 mph 1012.9mb 82f 82f
8:08am 4 7 mph 1012.7mb 82f 82f
7:53am 4 7 mph 1012.6mb 82f 82f
7:38am 4 7 mph 1012.6mb 83f 82f
7:23am 4 7 mph 1012.6mb 83f 82f
7:08am 4 7 mph 1012.5mb 82f 81f
6:53am 4 7 mph 1012.4mb 83f 81f
6:38am 4 7 mph 1012.3mb 82f 81f
6:23am 4 7 mph 1012.1mb 82f 81f
6:08am 4 7 mph 1011.9mb 82f 81f
5:53am 4 7 mph 1011.7mb 82f 81f
5:38am 4 9 mph 1011.7mb 82f 81f
5:23am 4 9 mph 1011.6mb 82f 81f
5:08am 7 9 mph 1011.6mb 82f 81f
4:53am 7 11 mph 1011.7mb 82f 81f
4:38am 7 11 mph 1011.7mb 82f 81f
4:23am 7 11 mph 1011.8mb 82f 81f
4:08am 7 11 mph 1012mb 82f 81f
3:53am 9 11 mph 1011.9mb 82f 81f
3:38am 9 13 mph 1011.8mb 82f 81f
3:23am 9 13 mph 1011.8mb 82f 81f
3:08am 9 13 mph 1011.8mb 82f 81f
2:53am 9 11 mph 1011.9mb 82f 81f
2:38am 9 13 mph 1012mb 82f 81f
2:23am 11 13 mph 1012.1mb 82f 81f
2:08am 9 13 mph 1012.1mb 82f 81f
1:53am 7 11 mph 1012.2mb 82f 81f
1:38am 9 11 mph 1012.3mb 82f 81f
1:23am 9 11 mph 1012.4mb 82f 81f
1:08am 9 11 mph 1012.7mb 83f 81f
12:53am 9 11 mph 1012.8mb 83f 81f
12:38am 9 11 mph 1012.8mb 83f 81f
12:23am 11 13 mph 1012.7mb 83f 81f
12:08am 11 13 mph 1012.6mb 83f 81f
Mon 08/24 11:53pm 9 13 mph 1012.6mb 83f 81f
11:38pm 11 13 mph 1012.4mb 83f 81f
11:23pm 9 11 mph 1012.7mb 83f 81f
11:08pm 7 11 mph 1012.9mb 83f 81f
10:53pm 9 11 mph 1012.9mb 83f 81f
10:38pm 7 11 mph 1013mb 83f 82f
10:23pm 7 9 mph 1013.1mb 83f 82f